Location: Unspecified
(35.0317°N, 0.0000°E)
Time: 02:05:49
(UTC+00:00)

OTV 5 (USA 277) - Visible Passes

Search period start: 15 October 2019 00:00
Search period end: 25 October 2019 00:00
Orbit: 310 x 324 km, 54.5° (Epoch: 08 October)

Date Brightness Start Highest point End Pass type
(mag) Time Alt. Az. Time Alt. Az. Time Alt. Az.
16 Oct ? 05:42:28 10° NNE 05:42:56 10° NNE 05:43:25 10° NE visible
19 Oct ? 04:50:43 10° N 04:52:28 15° NE 04:54:13 10° ENE visible
20 Oct ? 05:05:08 15° NNW 05:07:10 40° NE 05:09:46 10° ESE visible
21 Oct ? 05:19:54 17° WNW 05:21:43 50° SW 05:24:22 10° SSE visible
22 Oct ? 04:03:51 13° E 04:03:51 13° E 04:04:15 10° E visible
22 Oct ? 05:34:48 11° W 05:36:06 15° SW 05:37:44 10° SSW visible
23 Oct ? 04:18:52 13° SE 04:18:52 13° SE 04:19:17 10° SE visible
